Flag for Estonia Weather past 2 weeks in Narva, Estonia

Now
41 °F

Passing clouds.


Feels Like: 41 °F
Forecast: 36 / 51 °F
Wind: 1 mph from Northwest

Location: Narva

Current Time: Oct 1, 2014 at 2:02:24 AM

Latest Report: Oct 1, 2014 at 1:00 AM


Visibility: 13 mi

Pressure: 30.31 "Hg

Humidity: 87%

Dew point: 37 °F

Location of NarvaLocation

Historic Weather in Narva — Graph

°F

Narva temperature yesterday

Maximum temperature yesterday: 52 °F (at 12:00 AM)
Minimum temperature yesterday: 46 °F (at 9:00 PM)
Average temperature yesterday: 50 °F

Past Weeks' High & Low Weather Summary

 TemperatureHumidityPressure
High67 °F (Sep 19, 2:00 PM)100% (Sep 16, 1:00 AM)30.45 "Hg (Sep 16, 1:00 AM)
Low33 °F (Sep 16, 6:00 AM)44% (Sep 20, 4:00 PM)29.41 "Hg (Sep 23, 5:00 AM)
Average51 °F79%29.95 "Hg
* Reported Midnight between Sep 15 and Sep 16 — Midnight between Sep 30 and Oct 1, Narva, Weather by CustomWeather, © 2014

Note: Actual official high and low records may vary slightly from our data, if they occured in-between our weather recording intervals... More about our weather records

Advertising

Narva weather history for previous 24 hours

 ConditionsComfort  
Time TempWeatherWind HumidityBarometerVisibility
12:00 AM
Oct 1
43 °FPassing clouds.2 mph87%30.29 "Hg12 mi
11:00 PM
Sep 30
46 °FPassing clouds.3 mph83%30.27 "Hg12 mi
10:00 PM47 °FRain showers. Overcast.6 mph80%30.25 "Hg12 mi
9:00 PM46 °FPassing clouds.5 mph81%30.23 "Hg12 mi
8:00 PM47 °FOvercast.5 mph75%30.21 "Hg12 mi
7:00 PM46 °FRain showers. Overcast.5 mph82%30.18 "Hg12 mi
6:00 PM48 °FOvercast.5 mph64%30.15 "Hg12 mi
5:00 PM50 °FOvercast.5 mph64%30.14 "Hg12 mi
4:00 PM50 °FOvercast.5 mph64%30.12 "Hg12 mi
3:00 PM50 °FOvercast.6 mph62%30.10 "Hg12 mi
2:00 PM50 °FOvercast.6 mph66%30.08 "Hg12 mi
1:00 PM50 °FOvercast.7 mph73%30.06 "Hg12 mi
12:00 PM52 °FPartly sunny.7 mph73%30.04 "Hg12 mi
11:00 AM51 °FOvercast.7 mph75%30.01 "Hg12 mi
10:00 AM51 °FPartly sunny.7 mph75%29.98 "Hg12 mi
9:00 AM50 °FOvercast.7 mph76%29.96 "Hg12 mi
8:00 AM50 °FOvercast.6 mph76%29.93 "Hg12 mi
7:00 AM50 °FPassing clouds.7 mph77%29.92 "Hg12 mi
6:00 AM50 °FPassing clouds.7 mph76%29.90 "Hg12 mi
5:00 AM51 °FPassing clouds.8 mph74%29.89 "Hg12 mi
4:00 AM51 °FPassing clouds.7 mph71%29.88 "Hg12 mi
3:00 AM51 °FPassing clouds.7 mph70%29.88 "Hg12 mi
2:00 AM51 °FClear.7 mph68%29.89 "Hg12 mi
Weather by CustomWeather, © 2014

See weather overviewHow to use our weather pages